Tracking 35334 objects as of 13-Sep-2026
HD Live streaming from Space Station
objects crossing your sky now

STARLINK-36148

Track STARLINK-36148 now!
10-day predictions


NORAD ID: 67005
Int'l Code: 2025-293C
Launch date: December 10, 2025
Source: United States (US)
Launch site: AIR FORCE WESTERN TEST RANGE (AFWTR)
Your satellite tracking list
Your tracking list is empty




NASA's NSSDC Master Catalog

Two Line Element Set (TLE):
1 67005U 25293C   26255.93999716  .00004693  00000-0  40086-3 0  9995
2 67005  70.0028 342.4333 0003466 266.2592  93.8171 14.98327382 42934
Source of the keplerian elements: AFSPC